Time,TemperatureF,DewpointF,PressureIn,WindDirection,WindDirectionDegrees,WindSpeedMPH,WindSpeedGustMPH,Humidity,HourlyPrecipIn,Conditions,Clouds,dailyrainin,SoftwareType,DateUTC
2013-02-18 00:00:00,29.1,21.5,29.97,SE,145,4.0,4.0,73,0.00,,,0.00,Wunderground v.1.15,2013-02-18 06:00:00,
2013-02-18 00:10:00,29.1,21.5,29.97,ESE,115,4.0,4.0,73,0.00,,,0.00,Wunderground v.1.15,2013-02-18 06:10:00,
2013-02-18 00:20:00,29.0,21.7,29.97,SE,134,4.0,4.0,74,0.00,,,0.00,Wunderground v.1.15,2013-02-18 06:20:00,
2013-02-18 00:30:00,29.1,21.8,29.97,East,87,4.0,4.0,74,0.00,,,0.00,Wunderground v.1.15,2013-02-18 06:30:00,
2013-02-18 00:40:00,29.0,21.7,29.96,SE,129,3.0,5.0,74,0.00,,,0.00,Wunderground v.1.15,2013-02-18 06:40:00,
2013-02-18 00:45:00,29.1,21.8,29.96,SE,140,4.0,5.0,74,0.00,,,0.00,Wunderground v.1.15,2013-02-18 06:45:00,
2013-02-18 00:55:00,29.4,22.1,29.95,SSE,162,4.0,6.0,74,0.00,,,0.00,Wunderground v.1.15,2013-02-18 06:55:00,
2013-02-18 01:00:00,29.7,22.1,29.94,SSE,148,4.0,4.0,73,0.00,,,0.00,Wunderground v.1.15,2013-02-18 07:00:00,
2013-02-18 01:10:00,29.8,22.2,29.94,SSE,155,4.0,6.0,73,0.00,,,0.00,Wunderground v.1.15,2013-02-18 07:10:00,
2013-02-18 01:20:00,29.9,22.3,29.93,South,173,4.0,4.0,73,0.00,,,0.00,Wunderground v.1.15,2013-02-18 07:20:00,
2013-02-18 01:30:00,30.0,22.4,29.93,SE,135,4.0,4.0,73,0.00,,,0.00,Wunderground v.1.15,2013-02-18 07:30:00,
2013-02-18 01:35:00,30.0,22.4,29.93,SSE,156,4.0,4.0,73,0.00,,,0.00,Wunderground v.1.15,2013-02-18 07:35:00,
2013-02-18 01:45:00,30.0,22.4,29.92,SE,144,4.0,4.0,73,0.00,,,0.00,Wunderground v.1.15,2013-02-18 07:45:00,
2013-02-18 01:50:00,30.0,22.4,29.92,SE,143,3.0,3.0,73,0.00,,,0.00,Wunderground v.1.15,2013-02-18 07:50:00,
2013-02-18 02:00:00,30.1,22.5,29.91,SSE,153,4.0,4.0,73,0.00,,,0.00,Wunderground v.1.15,2013-02-18 08:00:00,
2013-02-18 02:10:00,30.1,22.5,29.91,SSE,158,4.0,4.0,73,0.00,,,0.00,Wunderground v.1.15,2013-02-18 08:10:00,
2013-02-18 02:20:00,30.2,22.6,29.90,SE,132,4.0,4.0,73,0.00,,,0.00,Wunderground v.1.15,2013-02-18 08:20:00,
2013-02-18 02:30:00,30.3,22.7,29.90,SE,131,4.0,4.0,73,0.00,,,0.00,Wunderground v.1.15,2013-02-18 08:30:00,
2013-02-18 02:40:00,30.0,22.4,29.89,SE,140,3.0,4.0,73,0.00,,,0.00,Wunderground v.1.15,2013-02-18 08:40:00,
2013-02-18 02:50:00,29.9,22.6,29.88,South,180,3.0,4.0,74,0.00,,,0.00,Wunderground v.1.15,2013-02-18 08:50:00,
2013-02-18 03:00:00,29.9,22.6,29.87,SE,134,4.0,4.0,74,0.00,,,0.00,Wunderground v.1.15,2013-02-18 09:00:00,
2013-02-18 03:10:00,29.8,22.5,29.87,SE,139,4.0,4.0,74,0.00,,,0.00,Wunderground v.1.15,2013-02-18 09:10:00,
2013-02-18 03:20:00,30.1,22.8,29.86,ESE,120,5.0,7.0,74,0.00,,,0.00,Wunderground v.1.15,2013-02-18 09:20:00,
2013-02-18 03:30:00,30.7,22.7,29.85,SSE,149,5.0,7.0,72,0.00,,,0.00,Wunderground v.1.15,2013-02-18 09:30:00,
2013-02-18 03:40:00,30.8,22.8,29.85,South,169,6.0,6.0,72,0.00,,,0.00,Wunderground v.1.15,2013-02-18 09:40:00,
2013-02-18 03:50:00,30.9,22.9,29.84,SSE,161,6.0,7.0,72,0.00,,,0.00,Wunderground v.1.15,2013-02-18 09:50:00,
2013-02-18 04:00:00,31.0,23.0,29.84,SE,140,6.0,6.0,72,0.00,,,0.00,Wunderground v.1.15,2013-02-18 10:00:00,
2013-02-18 04:10:00,31.3,23.3,29.83,ESE,102,8.0,8.0,72,0.00,,,0.00,Wunderground v.1.15,2013-02-18 10:10:00,
2013-02-18 04:20:00,31.3,23.3,29.83,South,174,7.0,9.0,72,0.00,,,0.00,Wunderground v.1.15,2013-02-18 10:20:00,
2013-02-18 04:30:00,31.4,23.4,29.82,SE,140,8.0,8.0,72,0.00,,,0.00,Wunderground v.1.15,2013-02-18 10:30:00,
2013-02-18 04:35:00,31.6,23.6,29.82,SSE,157,8.0,8.0,72,0.00,,,0.00,Wunderground v.1.15,2013-02-18 10:35:00,
2013-02-18 04:45:00,31.7,23.7,29.82,SE,142,8.0,8.0,72,0.00,,,0.00,Wunderground v.1.15,2013-02-18 10:45:00,
2013-02-18 04:55:00,31.8,23.8,29.81,SSE,159,7.0,12.0,72,0.00,,,0.00,Wunderground v.1.15,2013-02-18 10:55:00,
2013-02-18 05:00:00,32.0,24.0,29.81,SSE,150,9.0,10.0,72,0.00,,,0.00,Wunderground v.1.15,2013-02-18 11:00:00,
2013-02-18 05:10:00,32.0,24.0,29.81,SSE,149,8.0,12.0,72,0.00,,,0.00,Wunderground v.1.15,2013-02-18 11:10:00,
2013-02-18 05:20:00,32.0,24.3,29.80,SSE,155,8.0,8.0,73,0.00,,,0.00,Wunderground v.1.15,2013-02-18 11:20:00,
2013-02-18 05:30:00,32.0,24.3,29.80,South,179,9.0,9.0,73,0.00,,,0.00,Wunderground v.1.15,2013-02-18 11:30:00,
2013-02-18 05:35:00,32.0,24.3,29.80,SE,136,9.0,9.0,73,0.00,,,0.00,Wunderground v.1.15,2013-02-18 11:35:00,
2013-02-18 05:45:00,32.0,24.6,29.79,South,177,9.0,10.0,74,0.00,,,0.00,Wunderground v.1.15,2013-02-18 11:45:00,
2013-02-18 05:50:00,32.0,24.6,29.79,SE,146,9.0,9.0,74,0.00,,,0.00,Wunderground v.1.15,2013-02-18 11:50:00,
2013-02-18 06:00:00,31.8,24.8,29.78,SE,146,8.0,8.0,75,0.00,,,0.00,Wunderground v.1.15,2013-02-18 12:00:00,
2013-02-18 06:05:00,31.8,24.8,29.78,SSE,156,8.0,8.0,75,0.00,,,0.00,Wunderground v.1.15,2013-02-18 12:05:00,
2013-02-18 06:15:00,31.8,25.1,29.78,SSE,151,8.0,17.0,76,0.00,,,0.00,Wunderground v.1.15,2013-02-18 12:15:00,
2013-02-18 06:20:00,31.8,25.1,29.78,South,185,8.0,8.0,76,0.00,,,0.00,Wunderground v.1.15,2013-02-18 12:20:00,
2013-02-18 06:30:00,31.9,25.2,29.77,South,173,8.0,10.0,76,0.00,,,0.00,Wunderground v.1.15,2013-02-18 12:30:00,
2013-02-18 06:40:00,32.1,25.4,29.77,SSE,158,8.0,8.0,76,0.00,,,0.00,Wunderground v.1.15,2013-02-18 12:40:00,
2013-02-18 06:50:00,32.4,26.0,29.77,SE,143,8.0,15.0,77,0.00,,,0.00,Wunderground v.1.15,2013-02-18 12:50:00,
2013-02-18 07:00:00,32.8,26.4,29.76,SSE,162,8.0,19.0,77,0.00,,,0.00,Wunderground v.1.15,2013-02-18 13:00:00,
2013-02-18 07:10:00,33.1,26.4,29.76,SSE,163,8.0,8.0,76,0.00,,,0.00,Wunderground v.1.15,2013-02-18 13:10:00,
2013-02-18 07:20:00,33.4,27.0,29.76,SSE,160,8.0,9.0,77,0.00,,,0.00,Wunderground v.1.15,2013-02-18 13:20:00,
2013-02-18 07:30:00,33.7,27.3,29.76,SSE,163,8.0,14.0,77,0.00,,,0.00,Wunderground v.1.15,2013-02-18 13:30:00,
2013-02-18 07:40:00,33.9,27.4,29.76,SSW,193,8.0,8.0,77,0.00,,,0.00,Wunderground v.1.15,2013-02-18 13:40:00,
2013-02-18 07:50:00,34.3,27.8,29.75,SSE,160,8.0,8.0,77,0.00,,,0.00,Wunderground v.1.15,2013-02-18 13:50:00,
2013-02-18 07:55:00,34.6,28.1,29.75,SE,146,8.0,10.0,77,0.00,,,0.00,Wunderground v.1.15,2013-02-18 13:55:00,
2013-02-18 08:00:00,34.9,28.4,29.75,SSE,159,8.0,11.0,77,0.00,,,0.00,Wunderground v.1.15,2013-02-18 14:00:00,
2013-02-18 08:10:00,35.6,29.1,29.75,SE,143,7.0,7.0,77,0.00,,,0.00,Wunderground v.1.15,2013-02-18 14:10:00,
2013-02-18 08:15:00,36.1,29.6,29.74,SE,146,7.0,9.0,77,0.00,,,0.00,Wunderground v.1.15,2013-02-18 14:15:00,
2013-02-18 08:25:00,37.0,30.1,29.74,SSE,147,8.0,10.0,76,0.00,,,0.00,Wunderground v.1.15,2013-02-18 14:25:00,
2013-02-18 08:30:00,37.6,30.7,29.74,SE,146,8.0,9.0,76,0.00,,,0.00,Wunderground v.1.15,2013-02-18 14:30:00,
2013-02-18 08:40:00,38.6,31.4,29.74,SE,124,8.0,9.0,75,0.00,,,0.00,Wunderground v.1.15,2013-02-18 14:40:00,
2013-02-18 08:45:00,39.2,31.9,29.73,SSE,153,9.0,9.0,75,0.00,,,0.00,Wunderground v.1.15,2013-02-18 14:45:00,
2013-02-18 08:55:00,40.5,32.9,29.73,SE,144,8.0,14.0,74,0.00,,,0.00,Wunderground v.1.15,2013-02-18 14:55:00,
2013-02-18 09:00:00,41.3,33.3,29.73,South,173,8.0,10.0,73,0.00,,,0.00,Wunderground v.1.15,2013-02-18 15:00:00,
2013-02-18 09:10:00,42.7,34.3,29.73,SSE,152,8.0,8.0,72,0.00,,,0.00,Wunderground v.1.15,2013-02-18 15:10:00,
2013-02-18 09:15:00,43.4,35.0,29.73,SSE,149,7.0,9.0,72,0.00,,,0.00,Wunderground v.1.15,2013-02-18 15:15:00,
2013-02-18 09:25:00,44.6,35.8,29.72,South,169,8.0,8.0,71,0.00,,,0.00,Wunderground v.1.15,2013-02-18 15:25:00,
2013-02-18 09:35:00,46.1,37.2,29.71,SSE,160,7.0,7.0,71,0.00,,,0.00,Wunderground v.1.15,2013-02-18 15:35:00,
2013-02-18 09:45:00,47.4,38.1,29.71,SE,146,8.0,8.0,70,0.00,,,0.00,Wunderground v.1.15,2013-02-18 15:45:00,
2013-02-18 09:50:00,48.0,38.3,29.71,SSE,162,9.0,9.0,69,0.00,,,0.00,Wunderground v.1.15,2013-02-18 15:50:00,
2013-02-18 10:00:00,48.7,38.2,29.71,SSW,199,9.0,9.0,67,0.00,,,0.00,Wunderground v.1.15,2013-02-18 16:00:00,
2013-02-18 10:10:00,49.2,38.7,29.70,SSE,163,9.0,9.0,67,0.00,,,0.00,Wunderground v.1.15,2013-02-18 16:10:00,
2013-02-18 10:20:00,49.3,39.2,29.71,SSE,163,10.0,10.0,68,0.00,,,0.00,Wunderground v.1.15,2013-02-18 16:20:00,
2013-02-18 10:30:00,49.8,39.3,29.70,SSE,165,9.0,9.0,67,0.00,,,0.00,Wunderground v.1.15,2013-02-18 16:30:00,
2013-02-18 10:40:00,49.8,39.7,29.70,SSW,198,10.0,13.0,68,0.00,,,0.00,Wunderground v.1.15,2013-02-18 16:40:00,
2013-02-18 10:45:00,50.3,39.8,29.70,SW,218,10.0,13.0,67,0.00,,,0.00,Wunderground v.1.15,2013-02-18 16:45:00,
2013-02-18 10:55:00,50.4,39.9,29.70,SSW,195,9.0,9.0,67,0.00,,,0.00,Wunderground v.1.15,2013-02-18 16:55:00,
2013-02-18 11:00:00,50.4,40.2,29.70,SE,145,9.0,9.0,68,0.00,,,0.00,Wunderground v.1.15,2013-02-18 17:00:00,
2013-02-18 11:10:00,50.5,40.3,29.69,South,190,8.0,8.0,68,0.00,,,0.00,Wunderground v.1.15,2013-02-18 17:10:00,
2013-02-18 11:15:00,50.8,40.6,29.69,SW,215,8.0,8.0,68,0.00,,,0.00,Wunderground v.1.15,2013-02-18 17:15:00,
2013-02-18 11:25:00,51.9,41.7,29.68,South,183,7.0,11.0,68,0.00,,,0.00,Wunderground v.1.15,2013-02-18 17:25:00,
2013-02-18 11:30:00,53.3,42.2,29.68,SSE,156,8.0,11.0,66,0.00,,,0.00,Wunderground v.1.15,2013-02-18 17:30:00,
2013-02-18 11:40:00,53.4,41.9,29.68,South,188,9.0,10.0,65,0.00,,,0.00,Wunderground v.1.15,2013-02-18 17:40:00,
2013-02-18 11:45:00,53.8,42.3,29.67,SE,139,9.0,13.0,65,0.00,,,0.00,Wunderground v.1.15,2013-02-18 17:45:00,
2013-02-18 11:55:00,53.9,42.4,29.67,SSW,210,8.0,9.0,65,0.00,,,0.00,Wunderground v.1.15,2013-02-18 17:55:00,
2013-02-18 12:00:00,53.7,42.6,29.66,SSE,163,7.0,7.0,66,0.00,,,0.00,Wunderground v.1.15,2013-02-18 18:00:00,
2013-02-18 12:05:00,53.0,42.3,29.66,SE,133,7.0,7.0,67,0.00,,,0.00,Wunderground v.1.15,2013-02-18 18:05:00,
2013-02-18 12:15:00,52.5,42.6,29.65,SE,126,6.0,8.0,69,0.00,,,0.00,Wunderground v.1.15,2013-02-18 18:15:00,
2013-02-18 12:25:00,52.3,42.4,29.65,SW,217,7.0,9.0,69,0.00,,,0.00,Wunderground v.1.15,2013-02-18 18:25:00,
2013-02-18 12:35:00,51.8,42.3,29.65,South,185,8.0,8.0,70,0.00,,,0.00,Wunderground v.1.15,2013-02-18 18:35:00,
2013-02-18 12:40:00,51.6,42.5,29.65,SSE,158,7.0,7.0,71,0.00,,,0.00,Wunderground v.1.15,2013-02-18 18:40:00,
2013-02-18 12:50:00,51.3,42.6,29.64,SE,146,7.0,7.0,72,0.00,,,0.00,Wunderground v.1.15,2013-02-18 18:50:00,
2013-02-18 12:55:00,51.4,43.0,29.63,SE,146,7.0,8.0,73,0.00,,,0.00,Wunderground v.1.15,2013-02-18 18:55:00,
2013-02-18 13:00:00,51.6,43.2,29.63,SW,229,8.0,14.0,73,0.00,,,0.00,Wunderground v.1.15,2013-02-18 19:00:00,
2013-02-18 13:10:00,51.8,43.4,29.62,SSE,153,8.0,8.0,73,0.00,,,0.00,Wunderground v.1.15,2013-02-18 19:10:00,
2013-02-18 13:15:00,52.0,43.6,29.62,SE,145,8.0,8.0,73,0.00,,,0.00,Wunderground v.1.15,2013-02-18 19:15:00,
2013-02-18 13:25:00,52.4,44.0,29.62,ESE,102,8.0,10.0,73,0.00,,,0.00,Wunderground v.1.15,2013-02-18 19:25:00,
2013-02-18 13:30:00,52.3,43.9,29.62,South,181,8.0,12.0,73,0.00,,,0.00,Wunderground v.1.15,2013-02-18 19:30:00,
2013-02-18 13:40:00,52.2,44.2,29.61,SW,236,8.0,11.0,74,0.00,,,0.00,Wunderground v.1.15,2013-02-18 19:40:00,
2013-02-18 13:45:00,52.1,44.1,29.61,SSE,165,8.0,13.0,74,0.00,,,0.00,Wunderground v.1.15,2013-02-18 19:45:00,
2013-02-18 13:55:00,52.9,44.8,29.60,South,181,8.0,8.0,74,0.00,,,0.00,Wunderground v.1.15,2013-02-18 19:55:00,
2013-02-18 14:00:00,53.8,45.3,29.60,SSE,167,8.0,8.0,73,0.00,,,0.00,Wunderground v.1.15,2013-02-18 20:00:00,
2013-02-18 14:10:00,53.8,45.0,29.59,South,191,8.0,8.0,72,0.00,,,0.00,Wunderground v.1.15,2013-02-18 20:10:00,
2013-02-18 14:20:00,53.0,44.9,29.59,SSW,196,8.0,8.0,74,0.00,,,0.00,Wunderground v.1.15,2013-02-18 20:20:00,
2013-02-18 14:25:00,52.8,45.1,29.59,SSW,212,9.0,9.0,75,0.00,,,0.00,Wunderground v.1.15,2013-02-18 20:25:00,
2013-02-18 14:35:00,51.8,45.2,29.58,South,170,8.0,8.0,78,0.00,,,0.00,Wunderground v.1.15,2013-02-18 20:35:00,
2013-02-18 14:40:00,51.4,45.1,29.58,SSW,203,7.0,7.0,79,0.00,,,0.00,Wunderground v.1.15,2013-02-18 20:40:00,
2013-02-18 14:50:00,51.2,45.2,29.58,SSE,165,7.0,7.0,80,0.00,,,0.00,Wunderground v.1.15,2013-02-18 20:50:00,
2013-02-18 14:55:00,51.1,45.5,29.58,South,176,7.0,7.0,81,0.00,,,0.00,Wunderground v.1.15,2013-02-18 20:55:00,
2013-02-18 15:00:00,50.9,45.6,29.57,SSE,166,6.0,6.0,82,0.00,,,0.00,Wunderground v.1.15,2013-02-18 21:00:00,
2013-02-18 15:20:00,51.4,45.8,29.55,SSE,167,7.0,7.0,81,0.00,,,0.00,Wunderground v.1.15,2013-02-18 21:20:00,
2013-02-18 15:25:00,51.5,45.9,29.55,SSE,163,7.0,7.0,81,0.00,,,0.00,Wunderground v.1.15,2013-02-18 21:25:00,
2013-02-18 15:35:00,51.4,45.8,29.54,SSE,158,5.0,6.0,81,0.00,,,0.00,Wunderground v.1.15,2013-02-18 21:35:00,
2013-02-18 15:45:00,51.4,45.8,29.54,South,185,6.0,6.0,81,0.00,,,0.00,Wunderground v.1.15,2013-02-18 21:45:00,
2013-02-18 15:55:00,51.4,45.8,29.53,SE,139,6.0,7.0,81,0.00,,,0.00,Wunderground v.1.15,2013-02-18 21:55:00,
2013-02-18 16:00:00,51.3,45.3,29.53,South,180,8.0,8.0,80,0.00,,,0.00,Wunderground v.1.15,2013-02-18 22:00:00,
2013-02-18 16:10:00,51.1,45.1,29.52,South,169,10.0,10.0,80,0.00,,,0.00,Wunderground v.1.15,2013-02-18 22:10:00,
2013-02-18 16:25:00,50.4,44.8,29.52,SSE,157,10.0,10.0,81,0.00,,,0.00,Wunderground v.1.15,2013-02-18 22:25:00,
2013-02-18 16:35:00,49.6,44.3,29.51,SE,146,10.0,10.0,82,0.00,,,0.00,Wunderground v.1.15,2013-02-18 22:35:00,
2013-02-18 16:40:00,49.3,44.4,29.51,SSE,152,10.0,10.0,83,0.00,,,0.00,Wunderground v.1.15,2013-02-18 22:40:00,
2013-02-18 16:50:00,48.7,44.4,29.50,South,174,8.0,8.0,85,0.00,,,0.00,Wunderground v.1.15,2013-02-18 22:50:00,
2013-02-18 17:00:00,48.7,44.4,29.50,SSE,148,9.0,10.0,85,0.00,,,0.00,Wunderground v.1.15,2013-02-18 23:00:00,
2013-02-18 17:10:00,48.7,44.4,29.49,SSW,194,10.0,10.0,85,0.00,,,0.00,Wunderground v.1.15,2013-02-18 23:10:00,
2013-02-18 17:20:00,48.4,44.4,29.48,SE,143,10.0,10.0,86,0.00,,,0.00,Wunderground v.1.15,2013-02-18 23:20:00,
2013-02-18 17:30:00,48.1,44.7,29.47,SE,145,9.0,9.0,88,0.00,,,0.00,Wunderground v.1.15,2013-02-18 23:30:00,
2013-02-18 17:35:00,47.8,44.4,29.47,SSE,165,9.0,9.0,88,0.00,,,0.00,Wunderground v.1.15,2013-02-18 23:35:00,
2013-02-18 17:45:00,47.5,44.4,29.47,SSE,159,9.0,10.0,89,0.00,,,0.00,Wunderground v.1.15,2013-02-18 23:45:00,
2013-02-18 17:50:00,47.3,44.2,29.47,South,188,9.0,9.0,89,0.00,,,0.00,Wunderground v.1.15,2013-02-18 23:50:00,
2013-02-18 18:00:00,47.1,44.3,29.46,SSW,200,9.0,13.0,90,0.00,,,0.00,Wunderground v.1.15,2013-02-19 00:00:00,
2013-02-18 18:10:00,47.2,44.4,29.46,SSE,160,10.0,10.0,90,0.00,,,0.00,Wunderground v.1.15,2013-02-19 00:10:00,
2013-02-18 18:20:00,46.8,44.3,29.46,SSW,198,9.0,13.0,91,0.00,,,0.01,Wunderground v.1.15,2013-02-19 00:20:00,
2013-02-18 18:25:00,46.6,44.4,29.46,South,188,9.0,13.0,92,0.33,,,0.03,Wunderground v.1.15,2013-02-19 00:25:00,
2013-02-18 18:35:00,46.5,44.6,29.45,SSE,159,10.0,19.0,93,0.19,,,0.07,Wunderground v.1.15,2013-02-19 00:35:00,
2013-02-18 18:45:00,46.4,44.5,29.45,SSE,150,9.0,10.0,93,0.11,,,0.09,Wunderground v.1.15,2013-02-19 00:45:00,
2013-02-18 18:55:00,46.1,44.2,29.45,South,176,7.0,8.0,93,0.08,,,0.11,Wunderground v.1.15,2013-02-19 00:55:00,
2013-02-18 19:00:00,46.0,44.4,29.45,SE,137,7.0,7.0,94,0.15,,,0.12,Wunderground v.1.15,2013-02-19 01:00:00,
2013-02-18 19:05:00,46.0,44.4,29.45,SW,214,7.0,7.0,94,0.09,,,0.12,Wunderground v.1.15,2013-02-19 01:05:00,
2013-02-18 19:15:00,44.6,41.0,29.48,WNW,283,10.0,15.0,87,0.14,,,0.16,Wunderground v.1.15,2013-02-19 01:15:00,
2013-02-18 19:25:00,40.3,37.9,29.49,West,279,15.0,16.0,91,0.09,,,0.18,Wunderground v.1.15,2013-02-19 01:25:00,
2013-02-18 19:30:00,39.5,37.1,29.49,WNW,288,14.0,14.0,91,0.12,,,0.19,Wunderground v.1.15,2013-02-19 01:30:00,
2013-02-18 19:35:00,39.1,37.0,29.49,WNW,293,13.0,14.0,92,0.09,,,0.19,Wunderground v.1.15,2013-02-19 01:35:00,
2013-02-18 19:45:00,38.4,36.6,29.50,WNW,287,12.0,13.0,93,0.06,,,0.20,Wunderground v.1.15,2013-02-19 01:45:00,
2013-02-18 19:50:00,38.1,36.3,29.50,WNW,294,9.0,10.0,93,0.05,,,0.20,Wunderground v.1.15,2013-02-19 01:50:00,
2013-02-18 20:00:00,37.5,35.7,29.50,WNW,285,9.0,9.0,93,0.05,,,0.21,Wunderground v.1.15,2013-02-19 02:00:00,
2013-02-18 20:05:00,37.1,35.3,29.51,West,274,9.0,9.0,93,0.04,,,0.21,Wunderground v.1.15,2013-02-19 02:05:00,
2013-02-18 20:10:00,36.5,34.7,29.51,WNW,294,11.0,22.0,93,0.00,,,0.21,Wunderground v.1.15,2013-02-19 02:10:00,
2013-02-18 20:20:00,34.5,32.4,29.52,WNW,298,13.0,13.0,92,0.00,,,0.21,Wunderground v.1.15,2013-02-19 02:20:00,
2013-02-18 20:25:00,33.7,31.9,29.52,West,276,12.0,13.0,93,0.00,,,0.21,Wunderground v.1.15,2013-02-19 02:25:00,
2013-02-18 20:30:00,33.1,31.3,29.52,WNW,283,10.0,10.0,93,0.00,,,0.21,Wunderground v.1.15,2013-02-19 02:30:00,
2013-02-18 20:40:00,32.6,31.1,29.54,WNW,282,9.0,13.0,94,0.00,,,0.22,Wunderground v.1.15,2013-02-19 02:40:00,
2013-02-18 20:45:00,32.5,31.0,29.54,West,278,10.0,22.0,94,0.00,,,0.22,Wunderground v.1.15,2013-02-19 02:45:00,
2013-02-18 20:55:00,32.3,30.8,29.55,West,261,12.0,15.0,94,0.00,,,0.22,Wunderground v.1.15,2013-02-19 02:55:00,
2013-02-18 21:00:00,32.1,30.6,29.55,West,278,9.0,9.0,94,0.00,,,0.22,Wunderground v.1.15,2013-02-19 03:00:00,
2013-02-18 21:10:00,31.8,30.3,29.56,West,281,11.0,11.0,94,0.00,,,0.22,Wunderground v.1.15,2013-02-19 03:10:00,
2013-02-18 21:20:00,31.6,29.8,29.57,West,269,12.0,18.0,93,0.00,,,0.22,Wunderground v.1.15,2013-02-19 03:20:00,
2013-02-18 21:30:00,31.3,29.2,29.57,West,276,14.0,14.0,92,0.00,,,0.22,Wunderground v.1.15,2013-02-19 03:30:00,
2013-02-18 21:40:00,30.9,28.6,29.58,WNW,290,14.0,15.0,91,0.00,,,0.22,Wunderground v.1.15,2013-02-19 03:40:00,
2013-02-18 21:50:00,30.1,27.3,29.59,West,276,18.0,19.0,89,0.00,,,0.22,Wunderground v.1.15,2013-02-19 03:50:00,
2013-02-18 22:00:00,29.8,27.0,29.61,WSW,252,15.0,15.0,89,0.00,,,0.22,Wunderground v.1.15,2013-02-19 04:00:00,
2013-02-18 22:10:00,29.6,27.0,29.61,WSW,239,13.0,15.0,90,0.00,,,0.22,Wunderground v.1.15,2013-02-19 04:10:00,
2013-02-18 22:20:00,29.1,26.5,29.62,WNW,288,15.0,16.0,90,0.00,,,0.22,Wunderground v.1.15,2013-02-19 04:20:00,
2013-02-18 22:30:00,28.6,25.8,29.63,West,270,16.0,16.0,89,0.00,,,0.22,Wunderground v.1.15,2013-02-19 04:30:00,
2013-02-18 22:40:00,28.0,25.2,29.63,WNW,295,16.0,23.0,89,0.00,,,0.22,Wunderground v.1.15,2013-02-19 04:40:00,
2013-02-18 22:50:00,27.0,23.9,29.64,West,264,17.0,18.0,88,0.00,,,0.22,Wunderground v.1.15,2013-02-19 04:50:00,
2013-02-18 23:00:00,26.2,22.9,29.64,WNW,283,21.0,24.0,87,0.00,,,0.22,Wunderground v.1.15,2013-02-19 05:00:00,
2013-02-18 23:10:00,25.6,22.0,29.64,West,263,18.0,21.0,86,0.00,,,0.00,Wunderground v.1.15,2013-02-19 05:10:00,
2013-02-18 23:20:00,25.3,21.7,29.66,WSW,256,17.0,19.0,86,0.00,,,0.00,Wunderground v.1.15,2013-02-19 05:20:00,
2013-02-18 23:25:00,25.2,21.6,29.66,West,276,18.0,19.0,86,0.00,,,0.00,Wunderground v.1.15,2013-02-19 05:25:00,
2013-02-18 23:30:00,25.0,21.1,29.66,West,262,18.0,21.0,85,0.00,,,0.00,Wunderground v.1.15,2013-02-19 05:30:00,
2013-02-18 23:40:00,24.3,20.2,29.66,WNW,288,19.0,19.0,84,0.00,,,0.00,Wunderground v.1.15,2013-02-19 05:40:00,
2013-02-18 23:50:00,24.2,20.6,29.67,WSW,252,13.0,17.0,86,0.00,,,0.00,Wunderground v.1.15,2013-02-19 05:50:00,
2013-02-18 23:55:00,24.2,20.3,29.67,West,281,15.0,17.0,85,0.00,,,0.00,Wunderground v.1.15,2013-02-19 05:55:00,